Regional Weather Roundup
Issued by NWS Newport/Morehead, NC

Current Version | Previous Version | Text Only | Print | Product List | Glossary On
Versions: 1 2 3 4 5 6 7 8 9 10 11 12 13 14 15 16 17 18 19 20 21 22 23 24 25 26 27 28 29 30 31 32 33 34 35 36 37 38 39 40 41 42 43 44 45 46 47 48 49 50
000
ASUS42 KMHX 290722
RWRMHX
WEATHER ROUNDUP FOR EASTERN NORTH CAROLINA
NATIONAL WEATHER SERVICE NEWPORT/MOREHEAD CITY NC
300 AM EDT FRI AUG 29 2014

NOTE: "FAIR" INDICATES FEW OR NO CLOUDS BELOW 12,000 FEET
WITH NO SIGNIFICANT WEATHER AND/OR OBSTRUCTIONS TO VISIBILITY

NCZ015>017-031-032-045>047-102-103-290800-
NORTH COAST

CITY           SKY/WX    TMP DP  RH WIND       PRES   REMARKS
EDENTON        CLOUDY    75  73  92 NE3       30.03F
ELIZABETH CITY MOCLDY    76  71  85 E6        30.04F
KITTY HAWK     PTSUNNY   76  72  87 E5        30.03F
MANTEO         CLOUDY    76  71  84 E5        30.04F

$$

NCZ045>047-081-094-103-104-290800-
CENTRAL COAST

CITY           SKY/WX    TMP DP  RH WIND       PRES   REMARKS
FRISCO         PTCLDY    74  74 100 SE3       30.04S
SWANQUARTER      N/A     77 N/A N/A SW3       30.00S

$$

NCZ095-097-098-100-101-290800-
SOUTHERN COAST

CITY           SKY/WX    TMP DP  RH WIND       PRES   REMARKS
BEAUFORT       CLEAR     79  73  82 W6        30.04R
CEDAR ISLAND     N/A     77 N/A N/A SW5G10    30.06S
JACKSONVILLE   PTCLDY    72  69  90 CALM      30.03S
NEWPORT        NOT AVBL
PINEY ISLAND   MOSUNNY   78  73  84 SW7       30.03S
WILMINGTON     CLEAR     73  70  90 CALM      30.04R


$$

NCZ011>013-027>030-043-044-078>080-089-090>093-098-290800-
COASTAL PLAIN

CITY           SKY/WX    TMP DP  RH WIND       PRES   REMARKS
AHOSKIE        CLOUDY    71  69  93 N9        30.06S
CLINTON        NOT AVBL
ELIZABETHTOWN  CLEAR     73  67  81 CALM      30.03F
GOLDSBORO      CLEAR     74  74  97 S2        30.01S
GREENVILLE     MOCLDY    75  73  94 CALM      30.04S
HAVELOCK       CLEAR     74  69  85 SW5       30.04S
KENANSVILLE    CLEAR     71  68  90 CALM      30.04S
KINSTON        CLEAR     72  69  91 CALM      30.04R
NEW BERN       CLEAR     74  69  85 SW5       30.04S
RICHLANDS      MOCLDY    70  66  88 CALM      30.04S
ROANOKE RAPIDS NOT AVBL
ROCKY MOUNT    CLEAR     73  71  93 CALM      30.02S FOG
WASHINGTON     PTCLDY    72  71  95 CALM      30.02F
WHITEVILLE     CLEAR     71  67  85 CALM      30.03F

$$

AMZ130-135-150-152-154-156-158-170-250-252-270-ANZ085-086-088-633-658-670-290800-
MARINE OBSERVATIONS

STATION/POSITION TIME  TEMP    WIND        PRES    WAVE   SWELL
                       AIR SEA DIR/SP/G            HT/PER HT/PER
                 (UTC) (F)     (DEG/KT/KT) (MB)    (FT/S) (FT/S)
CHESAPEAKE LIGHT 0700   75      80/ 15/ 17 1018.6
BUOY 44014       0700   76 75   60/  6/  8 1017.5    4/ 9   3/ 9
DUCK             0700   77 77  120/  6/  8 1016.7
2E DUCK          0700                        N/A     2/ 9   2/11
OREGON INLET     0700   76 80   90/  5/  6 1017.1
BUOY 44095       0700      77                N/A     4/ 9   2/11
20E OREGON INLET NOT AVBL
HATTERAS CG      0700   80 81  150/  2/  3 1017.5
DIAMOND BUOY     0700   80     320/  2/  4 1017.1    4/ 8   5/ 8
CAPE LOOKOUT     0700   80     240/  8/ 10 1017.0
BEAUFORT LAB     0700   79 80  260/  2/  5 1016.6
30 SE NEW RIVER  0700   81 81  240/ 12/ 14 1017.4    5/ 9   3/ 9
5 SE WRIGHTSVILL 0600   77 81  230/ 14/ 16   N/A
BUOY 41002       0612   80 81  240/  2/  4 1018.6    5/ 8   5/ 8
BUOY 41004       0700   83 83  170/ 10/ 10 1016.5    4/ 9   3/ 9

$$


USA.gov is the U.S. government's official web portal to all federal, state and local government web resources and services.